DM5RC Weather Reports


Display with metric or nautical units.
time (UTC)temp
F
wind
direction
speed
MPH
gust
MPH
rain 1hr
in
rain 24hr
in
rain mn
in
humidity
%
barometer
mb
20260831121817 72 233 6.0 10.0 0.00 0.00 0.00 75 1011.6
20260831121320 72 279 3.0 14.0 0.00 0.00 0.00 74 1011.5
20260831120823 72 268 7.0 14.0 0.00 0.00 0.00 74 1011.5
20260831120325 72 223 6.0 12.0 0.00 0.00 0.00 74 1011.5
20260831115826 72 234 7.0 13.0 0.00 0.00 0.00 74 1011.5
20260831115329 72 271 7.0 13.0 0.00 0.00 0.00 73 1011.4
20260831114830 72 264 6.0 12.0 0.00 0.00 0.00 73 1011.4
20260831114334 72 226 2.0 9.0 0.00 0.00 0.00 73 1011.4
20260831113816 72 242 5.0 13.0 0.00 0.00 0.00 74 1011.4
20260831113320 72 231 6.0 13.0 0.00 0.00 0.00 74 1011.5
20260831112823 72 236 6.0 12.0 0.00 0.00 0.00 74 1011.6
20260831112327 72 226 8.0 12.0 0.00 0.00 0.00 73 1011.6
20260831111831 72 272 5.0 10.0 0.00 0.00 0.00 73 1011.6
20260831111315 71 243 4.0 9.0 0.00 0.00 0.00 73 1011.6
20260831110818 71 184 6.0 11.0 0.00 0.00 0.00 73 1011.6
20260831110321 72 236 6.0 11.0 0.00 0.00 0.00 72 1011.6
20260831105845 72 211 3.0 7.0 0.00 0.00 0.00 72 1011.5
20260831105325 72 236 3.0 6.0 0.00 0.00 0.00 71 1011.6
20260831104826 72 271 4.0 6.0 0.00 0.00 0.00 71 1011.6
20260831104326 73 278 4.0 8.0 0.00 0.00 0.00 71 1011.6
20260831103826 73 288 1.0 6.0 0.00 0.00 0.00 71 1011.6
20260831103348 73 276 0.0 8.0 0.00 0.00 0.00 71 1011.6
20260831102829 73 271 1.0 8.0 0.00 0.00 0.00 71 1011.6
20260831102344 73 318 4.0 8.0 0.00 0.00 0.00 70 1011.7
20260831101825 72 245 2.0 9.0 0.00 0.00 0.00 72 1011.7
20260831101326 72 269 5.0 9.0 0.00 0.00 0.00 72 1011.6
20260831100828 72 251 3.0 7.0 0.00 0.00 0.00 73 1011.8
20260831100331 71 242 4.0 6.0 0.00 0.00 0.00 74 1011.8
20260831095834 71 205 2.0 5.0 0.00 0.00 0.00 75 1011.9
20260831095314 70 281 3.0 5.0 0.00 0.00 0.00 76 1011.9
20260831094816 69 252 2.0 5.0 0.00 0.00 0.00 76 1011.8
20260831094315 69 151 1.0 5.0 0.00 0.00 0.00 78 1011.7
20260831093838 68 243 2.0 5.0 0.00 0.00 0.00 78 1011.8
20260831093317 68 213 2.0 5.0 0.00 0.00 0.00 79 1011.8
20260831092817 67 230 3.0 6.0 0.00 0.00 0.00 79 1011.8
20260831092316 67 226 3.0 6.0 0.00 0.00 0.00 79 1011.8
20260831091818 66 273 1.0 6.0 0.00 0.00 0.00 80 1011.9
20260831091321 66 271 4.0 7.0 0.00 0.00 0.00 80 1011.9
20260831090822 66 267 2.0 6.0 0.00 0.00 0.00 80 1011.9
20260831090323 66 276 3.0 4.0 0.00 0.00 0.00 80 1012.0
20260831085825 66 272 1.0 10.0 0.00 0.00 0.00 80 1011.8
20260831085327 66 274 6.0 11.0 0.00 0.00 0.00 79 1011.8
20260831084827 66 321 6.0 11.0 0.00 0.00 0.00 79 1011.9
20260831084327 66 264 5.0 8.0 0.00 0.00 0.00 79 1012.0
20260831083844 66 279 4.0 9.0 0.00 0.00 0.00 79 1011.9
20260831083323 66 275 5.0 11.0 0.00 0.00 0.00 79 1011.9
20260831082844 66 273 6.0 11.0 0.00 0.00 0.00 79 1011.9
20260831082325 66 281 5.0 9.0 0.00 0.00 0.00 79 1011.9
20260831081826 66 223 5.0 9.0 0.00 0.00 0.00 79 1011.8
20260831081327 66 253 4.0 9.0 0.00 0.00 0.00 79 1011.9
20260831080828 65 272 4.0 9.0 0.00 0.00 0.00 79 1011.9
20260831080330 65 262 1.0 7.0 0.00 0.00 0.00 79 1011.8
20260831075813 65 251 4.0 8.0 0.00 0.00 0.00 79 1011.7
20260831075315 65 258 4.0 8.0 0.00 0.00 0.00 79 1011.8
20260831074818 65 279 4.0 8.0 0.00 0.00 0.00 78 1011.8
20260831074321 65 250 5.0 8.0 0.00 0.00 0.00 79 1011.9
20260831073825 65 251 3.0 8.0 0.00 0.00 0.00 79 1011.8
20260831073328 64 208 4.0 8.0 0.00 0.00 0.00 79 1011.9
20260831072813 64 238 3.0 8.0 0.00 0.00 0.00 80 1011.8
20260831072313 63 233 4.0 8.0 0.00 0.00 0.00 81 1011.7
20260831071813 63 224 3.0 7.0 0.00 0.00 0.00 82 1011.7
20260831071315 63 242 2.0 5.0 0.00 0.00 0.00 82 1011.7
20260831070834 62 226 1.0 3.0 0.00 0.00 0.00 83 1011.6
20260831070314 62 252 0.0 4.0 0.00 0.00 0.00 84 1011.6
20260831065817 62 254 2.0 5.0 0.00 0.00 0.00 85 1011.6
20260831065318 62 257 2.0 5.0 0.00 0.00 0.00 85 1011.4
20260831064820 62 271 2.0 3.0 0.00 0.00 0.00 85 1011.4
20260831064342 61 134 0.0 0.0 0.00 0.00 0.00 85 1010.8
20260831063824 61 134 0.0 0.0 0.00 0.00 0.00 85 1010.8
20260831063326 61 134 0.0 0.0 0.00 0.00 0.00 85 1010.8
20260831062828 61 134 0.0 0.0 0.00 0.00 0.00 85 1010.9
20260831062329 61 134 0.0 0.0 0.00 0.00 0.00 86 1010.9
20260831061850 61 134 0.0 0.0 0.00 0.00 0.00 86 1010.8
20260831061330 60 134 0.0 0.0 0.00 0.00 0.00 86 1010.9
20260831060833 60 134 0.0 0.0 0.00 0.00 0.00 86 1010.9
20260831060335 60 134 0.0 0.0 0.00 0.00 0.00 87 1010.9
20260831055816 60 134 0.0 0.0 0.00 0.00 0.00 87 1010.9
20260831055338 60 134 0.0 0.0 0.00 0.00 0.00 87 1010.9
20260831054836 60 134 0.0 0.0 0.00 0.00 0.00 87 1010.9
20260831054317 59 134 0.0 0.0 0.00 0.00 0.00 87 1011.0
20260831053822 59 134 0.0 0.0 0.00 0.00 0.00 87 1011.1
20260831053327 59 134 0.0 0.0 0.00 0.00 0.00 87 1011.0
20260831052832 59 134 0.0 0.0 0.00 0.00 0.00 87 1011.0
20260831052316 59 134 0.0 0.0 0.00 0.00 0.00 87 1011.0
20260831051818 59 134 0.0 0.0 0.00 0.00 0.00 87 1011.0
20260831051321 59 134 0.0 0.0 0.00 0.00 0.00 87 1011.1
20260831050822 60 134 0.0 0.0 0.00 0.00 0.00 87 1011.0
20260831050344 60 134 0.0 0.0 0.00 0.00 0.00 87 1011.1
20260831045844 60 134 0.0 0.0 0.00 0.00 0.00 86 1011.1
20260831045322 60 134 0.0 0.0 0.00 0.00 0.00 86 1011.1
20260831044823 59 134 0.0 0.0 0.00 0.00 0.00 87 1011.1
20260831044323 59 134 0.0 0.0 0.00 0.00 0.00 87 1011.1
20260831043824 59 134 0.0 0.0 0.00 0.00 0.00 88 1011.2
20260831043323 59 134 0.0 1.0 0.00 0.00 0.00 88 1011.2
20260831042824 58 134 0.0 2.0 0.00 0.00 0.00 88 1011.2
20260831042325 58 136 0.0 2.0 0.00 0.00 0.00 88 1011.2
20260831041826 58 139 0.0 1.0 0.00 0.00 0.00 88 1011.3
20260831041344 58 139 0.0 1.0 0.00 0.00 0.00 89 1011.3
20260831040824 58 205 0.0 1.0 0.00 0.00 0.00 89 1011.3
20260831040348 58 202 0.0 2.0 0.00 0.00 0.00 89 1011.3
20260831035831 58 202 1.0 2.0 0.00 0.00 0.00 90 1011.3
20260831035313 58 252 0.0 1.0 0.00 0.00 0.00 90 1011.4
20260831034817 58 251 0.0 1.0 0.00 0.00 0.00 91 1011.4
20260831034319 57 252 0.0 0.0 0.00 0.00 0.00 91 1011.4
20260831033840 57 252 0.0 0.0 0.00 0.00 0.00 91 1011.5
20260831033338 57 252 0.0 0.0 0.00 0.00 0.00 91 1011.5
20260831032839 58 252 0.0 0.0 0.00 0.00 0.00 90 1011.5
20260831032340 58 251 0.0 0.0 0.00 0.00 0.00 90 1011.5
20260831031842 58 252 0.0 0.0 0.00 0.00 0.00 90 1011.5
20260831031322 58 252 0.0 0.0 0.00 0.00 0.00 90 1011.6
20260831030825 58 252 0.0 0.0 0.00 0.00 0.00 90 1011.6
20260831030328 58 252 0.0 0.0 0.00 0.00 0.00 90 1011.7
20260831025831 58 252 0.0 0.0 0.00 0.00 0.00 89 1011.7
20260831025313 58 252 0.0 0.0 0.00 0.00 0.00 89 1011.7
20260831024814 58 251 0.0 0.0 0.00 0.00 0.00 89 1011.8
20260831024315 58 252 0.0 0.0 0.00 0.00 0.00 89 1011.8
20260831023817 58 252 0.0 0.0 0.00 0.00 0.00 89 1011.8
20260831023317 58 252 0.0 0.0 0.00 0.00 0.00 88 1011.8
20260831022819 58 252 0.0 0.0 0.00 0.00 0.00 88 1011.8
20260831022319 59 252 0.0 0.0 0.00 0.00 0.00 88 1011.9
20260831021821 59 252 0.0 0.0 0.00 0.00 0.00 88 1011.9
20260831021323 59 252 0.0 0.0 0.00 0.00 0.00 87 1012.0
20260831020822 59 252 0.0 0.0 0.00 0.00 0.00 86 1012.0
20260831020321 59 252 0.0 0.0 0.00 0.00 0.00 86 1012.1
20260831015820 60 252 0.0 0.0 0.00 0.00 0.00 86 1012.2
20260831015321 60 252 0.0 0.0 0.00 0.00 0.00 85 1012.2
20260831014822 60 252 0.0 0.0 0.00 0.00 0.00 85 1012.3
20260831014341 60 252 0.0 0.0 0.00 0.00 0.00 85 1012.3
20260831013822 60 251 0.0 1.0 0.00 0.00 0.00 85 1012.3
20260831013325 60 252 0.0 1.0 0.00 0.00 0.00 85 1012.4
20260831012827 60 252 0.0 0.0 0.00 0.00 0.00 85 1012.4
20260831012329 61 252 0.0 0.0 0.00 0.00 0.00 84 1012.5
20260831011812 61 252 0.0 1.0 0.00 0.00 0.00 84 1012.5
20260831011315 61 252 0.0 1.0 0.00 0.00 0.00 84 1012.6
20260831010814 61 252 0.0 2.0 0.00 0.00 0.00 84 1012.5
20260831010315 61 252 0.0 2.0 0.00 0.00 0.00 84 1012.5
20260831005816 61 252 1.0 2.0 0.00 0.00 0.00 84 1012.5
20260831005315 61 252 0.0 1.0 0.00 0.00 0.00 84 1012.6
20260831004814 61 252 0.0 1.0 0.00 0.00 0.00 84 1012.7
20260831004314 61 252 1.0 1.0 0.00 0.00 0.00 83 1012.7
20260831003815 61 252 0.0 1.0 0.00 0.00 0.00 82 1012.7
20260831003315 62 252 1.0 1.0 0.00 0.00 0.00 82 1012.8
20260831002815 62 252 1.0 2.0 0.00 0.00 0.00 81 1012.8
20260831002317 62 252 0.0 2.0 0.00 0.00 0.00 81 1012.8
20260831001839 62 250 1.0 2.0 0.00 0.00 0.00 81 1012.8
20260831001321 62 203 1.0 2.0 0.00 0.00 0.00 80 1012.8
20260831000823 63 264 0.0 2.0 0.00 0.00 0.00 80 1012.7
20260831000326 63 264 0.0 1.0 0.00 0.00 0.00 80 1012.7
20260830235828 63 264 0.0 1.0 0.00 0.00 0.00 79 1012.7
20260830235329 63 264 0.0 1.0 0.00 0.00 0.00 79 1012.7
20260830234831 63 264 0.0 1.0 0.00 0.00 0.00 79 1012.7
20260830234314 63 264 0.0 1.0 0.00 0.00 0.00 79 1012.7
20260830233815 63 264 0.0 1.0 0.00 0.00 0.00 78 1012.7
20260830233336 64 264 0.0 1.0 0.00 0.00 0.00 78 1012.7
20260830232858 64 264 0.0 1.0 0.00 0.00 0.00 78 1012.7
20260830232331 64 264 0.0 1.0 0.00 0.00 0.00 78 1012.7
20260830231835 64 264 0.0 1.0 0.00 0.00 0.00 78 1012.7
20260830231319 64 264 0.0 1.0 0.00 0.00 0.00 78 1012.7
20260830230850 64 264 0.0 1.0 0.00 0.00 0.00 78 1012.8
20260830230331 64 264 0.0 1.0 0.00 0.00 0.00 78 1012.8
20260830225832 64 264 0.0 0.0 0.00 0.00 0.00 78 1012.8
20260830225313 65 264 0.0 0.0 0.00 0.00 0.00 78 1012.8
20260830224813 65 264 0.0 1.0 0.00 0.00 0.00 78 1012.8
20260830224333 65 264 0.0 1.0 0.00 0.00 0.00 77 1012.8
20260830223854 66 264 0.0 0.0 0.00 0.00 0.00 76 1012.8
20260830223328 66 264 0.0 0.0 0.00 0.00 0.00 76 1012.8
20260830222814 66 264 0.0 1.0 0.00 0.00 0.00 76 1012.8
20260830222315 66 264 0.0 1.0 0.00 0.00 0.00 76 1012.8
20260830221834 66 264 0.0 1.0 0.00 0.00 0.00 75 1012.8
20260830221314 66 264 0.0 2.0 0.00 0.00 0.00 75 1012.8
20260830220818 66 264 0.0 2.0 0.00 0.00 0.00 75 1012.8
20260830220319 66 264 0.0 0.0 0.00 0.00 0.00 75 1012.8
20260830215819 66 264 0.0 0.0 0.00 0.00 0.00 76 1012.8
20260830215322 66 264 0.0 0.0 0.00 0.00 0.00 76 1012.9
20260830214825 66 264 0.0 0.0 0.00 0.00 0.00 76 1012.9
20260830214328 66 264 0.0 0.0 0.00 0.00 0.00 77 1012.9
20260830213814 66 264 0.0 0.0 0.00 0.00 0.00 76 1012.9
20260830213316 66 264 0.0 1.0 0.00 0.00 0.00 76 1012.9
20260830212813 66 264 0.0 1.0 0.00 0.00 0.00 76 1012.9
20260830212315 66 264 0.0 1.0 0.00 0.00 0.00 76 1012.9
20260830211818 66 264 0.0 0.0 0.00 0.00 0.00 75 1012.9
20260830211320 67 264 0.0 0.0 0.00 0.00 0.00 75 1012.8
20260830210822 67 264 0.0 0.0 0.00 0.00 0.00 75 1012.7
20260830210324 67 264 0.0 1.0 0.00 0.00 0.00 74 1012.8
20260830205824 67 264 0.0 1.0 0.00 0.00 0.00 74 1012.8
20260830205327 67 264 0.0 2.0 0.00 0.00 0.00 74 1012.7
20260830204830 68 264 1.0 2.0 0.00 0.00 0.00 73 1012.7
20260830204353 68 264 1.0 2.0 0.00 0.00 0.00 73 1012.6
20260830203816 68 264 1.0 2.0 0.00 0.00 0.00 72 1012.6
20260830203339 68 264 0.0 2.0 0.00 0.00 0.00 72 1012.6
20260830202819 69 264 1.0 2.0 0.00 0.00 0.00 71 1012.6
20260830202322 69 264 1.0 2.0 0.00 0.00 0.00 71 1012.6
20260830201826 69 264 1.0 2.0 0.00 0.00 0.00 71 1012.6
20260830201328 69 264 0.0 2.0 0.00 0.00 0.00 71 1012.5
20260830200831 69 264 1.0 2.0 0.00 0.00 0.00 71 1012.5
20260830200332 69 264 1.0 1.0 0.00 0.00 0.00 70 1012.5
20260830195831 70 264 1.0 2.0 0.00 0.00 0.00 70 1012.4
20260830195350 70 264 1.0 2.0 0.00 0.00 0.00 70 1012.4
20260830194828 70 264 1.0 2.0 0.00 0.00 0.00 69 1012.4
20260830194349 71 264 0.0 2.0 0.00 0.00 0.00 68 1012.4
20260830193829 71 264 0.0 1.0 0.00 0.00 0.00 67 1012.4
20260830193330 72 264 0.0 1.0 0.00 0.00 0.00 66 1012.3
20260830192832 72 264 0.0 5.0 0.00 0.00 0.00 65 1012.3
20260830192315 72 262 1.0 5.0 0.00 0.00 0.00 64 1012.2
20260830191818 72 258 3.0 5.0 0.00 0.00 0.00 64 1012.2
20260830191321 72 266 2.0 5.0 0.00 0.00 0.00 64 1012.2
20260830190824 72 271 3.0 5.0 0.00 0.00 0.00 65 1012.1
20260830190348 72 268 2.0 4.0 0.00 0.00 0.00 65 1012.2
20260830185831 72 268 2.0 5.0 0.00 0.00 0.00 66 1012.1
20260830185314 72 269 2.0 5.0 0.00 0.00 0.00 67 1012.1
20260830184816 72 268 1.0 4.0 0.00 0.00 0.00 67 1012.1
20260830184315 72 251 1.0 3.0 0.00 0.00 0.00 67 1012.1
20260830183816 72 251 1.0 2.0 0.00 0.00 0.00 66 1012.0
20260830183316 73 251 0.0 1.0 0.00 0.00 0.00 66 1012.0
20260830182817 73 251 1.0 1.0 0.00 0.00 0.00 65 1011.9
20260830182317 73 251 0.0 1.0 0.00 0.00 0.00 65 1011.8
20260830181817 73 251 0.0 1.0 0.00 0.00 0.00 65 1011.7
20260830181318 74 251 0.0 2.0 0.00 0.00 0.00 64 1011.6
20260830180821 74 251 0.0 2.0 0.00 0.00 0.00 64 1011.6
20260830180322 74 252 1.0 2.0 0.00 0.00 0.00 63 1011.6
20260830175824 74 252 1.0 2.0 0.00 0.00 0.00 63 1011.5
20260830175327 75 253 1.0 3.0 0.00 0.00 0.00 62 1011.5
20260830174830 75 236 1.0 3.0 0.00 0.00 0.00 62 1011.4
20260830174313 75 267 0.0 3.0 0.00 0.00 0.00 61 1011.4
20260830173814 75 267 1.0 4.0 0.00 0.00 0.00 60 1011.3
20260830173316 76 262 1.0 5.0 0.00 0.00 0.00 60 1011.3
20260830172816 76 257 2.0 6.0 0.00 0.00 0.00 59 1011.4
20260830172320 76 262 2.0 7.0 0.00 0.00 0.00 59 1011.3
20260830171824 76 236 4.0 7.0 0.00 0.00 0.00 59 1011.3
20260830171329 77 262 3.0 11.0 0.00 0.00 0.00 58 1011.2
20260830170813 77 250 4.0 11.0 0.00 0.00 0.00 58 1011.3
20260830170318 77 255 4.0 12.0 0.00 0.00 0.00 58 1011.3
20260830165823 77 250 6.0 12.0 0.00 0.00 0.00 57 1011.2
20260830165326 78 281 4.0 10.0 0.00 0.00 0.00 57 1011.2
20260830164848 78 280 4.0 11.0 0.00 0.00 0.00 56 1011.2
20260830164329 78 271 3.0 13.0 0.00 0.00 0.00 56 1011.2
20260830163830 78 266 8.0 13.0 0.00 0.00 0.00 56 1011.2
20260830163331 78 259 7.0 12.0 0.00 0.00 0.00 57 1011.2
20260830162851 78 261 3.0 8.0 0.00 0.00 0.00 58 1011.2
20260830162332 78 263 3.0 8.0 0.00 0.00 0.00 57 1011.2
20260830161341 79 247 6.0 12.0 0.00 0.00 0.00 56 1011.1
20260830160820 79 257 4.0 11.0 0.00 0.00 0.00 56 1011.1
20260830160321 79 268 5.0 14.0 0.00 0.00 0.00 56 1011.2
20260830155821 79 277 8.0 14.0 0.00 0.00 0.00 56 1011.2
20260830155321 79 268 4.0 15.0 0.00 0.00 0.00 56 1011.2
20260830154852 79 253 6.0 14.0 0.00 0.00 0.00 56 1011.3
20260830154316 79 283 6.0 17.0 0.00 0.00 0.00 56 1011.3
20260830153838 78 286 8.0 14.0 0.00 0.00 0.00 57 1011.3
20260830153335 79 273 7.0 17.0 0.00 0.00 0.00 57 1011.3
20260830152835 79 269 7.0 17.0 0.00 0.00 0.00 57 1011.3
20260830152334 79 259 7.0 16.0 0.00 0.00 0.00 57 1011.3
20260830151814 79 281 6.0 16.0 0.00 0.00 0.00 57 1011.2
20260830151315 79 280 9.0 21.0 0.00 0.00 0.00 57 1011.2
20260830150815 79 270 7.0 20.0 0.00 0.00 0.00 57 1011.4
20260830150315 79 211 8.0 20.0 0.00 0.00 0.00 58 1011.3
20260830145817 79 280 9.0 18.0 0.00 0.00 0.00 58 1011.5
20260830145320 79 239 8.0 16.0 0.00 0.00 0.00 58 1011.4
20260830144823 79 262 6.0 15.0 0.00 0.00 0.00 58 1011.5
20260830144325 79 264 8.0 15.0 0.00 0.00 0.00 58 1011.4
20260830143825 78 282 9.0 15.0 0.00 0.00 0.00 58 1011.5
20260830143325 78 269 8.0 18.0 0.00 0.00 0.00 60 1011.5
20260830142825 78 201 7.0 18.0 0.00 0.00 0.00 60 1011.4
20260830142327 78 283 10.0 18.0 0.00 0.00 0.00 60 1011.7
20260830141830 79 259 6.0 15.0 0.00 0.00 0.00 60 1011.4
20260830141313 79 274 5.0 17.0 0.00 0.00 0.00 61 1011.6
20260830140816 78 279 9.0 17.0 0.00 0.00 0.00 61 1011.6
20260830140318 78 264 9.0 17.0 0.00 0.00 0.00 62 1011.6
20260830135820 78 278 6.0 18.0 0.00 0.00 0.00 62 1011.6
20260830135323 78 259 10.0 18.0 0.00 0.00 0.00 62 1011.6
20260830134825 78 279 9.0 19.0 0.00 0.00 0.00 61 1011.6
20260830134328 78 278 11.0 19.0 0.00 0.00 0.00 61 1011.5
20260830133830 78 290 7.0 16.0 0.00 0.00 0.00 61 1011.4
20260830133314 78 238 9.0 19.0 0.00 0.00 0.00 60 1011.5
20260830132817 78 321 10.0 20.0 0.00 0.00 0.00 60 1011.4
20260830132323 78 264 10.0 20.0 0.00 0.00 0.00 59 1011.6
20260830131828 78 195 8.0 20.0 0.00 0.00 0.00 58 1011.3
20260830131330 78 274 8.0 20.0 0.00 0.00 0.00 58 1011.4
20260830130831 78 254 10.0 19.0 0.00 0.00 0.00 58 1011.4
20260830130313 78 278 10.0 19.0 0.00 0.00 0.00 58 1011.4
20260830125815 79 199 9.0 16.0 0.00 0.00 0.00 58 1011.3
20260830125317 78 271 9.0 19.0 0.00 0.00 0.00 58 1011.3
20260830124838 79 249 10.0 19.0 0.00 0.00 0.00 57 1011.2
20260830124317 79 240 8.0 17.0 0.00 0.00 0.00 58 1011.2
20260830123818 79 250 6.0 18.0 0.00 0.00 0.00 57 1011.1
20260830123318 79 264 9.0 18.0 0.00 0.00 0.00 57 1011.1
20260830122820 78 286 6.0 18.0 0.00 0.00 0.00 58 1011.1
20260830122344 78 275 6.0 20.0 0.00 0.00 0.00 58 1011.2